User: anonymous   Login
Location: Theydon Bois
(51.6750°N, 0.1050°E)
Time: 08:17:47
(UTC+00:00)
Language:

Cosmos 1674 - Orbit

View from above orbital plane
View from above orbital plane
View from above satellite
View from above satellite

Ground track
Ground track

The orbit data is extracted from the following two-line orbital elements,

1 15944U 85069A   17350.57575057 +.00000917 +00000-0 +42467-4 0  9992
2 15944 082.5094 048.5739 0016494 213.8814 146.1368 15.18737152765423
Epoch (UTC): 16 December 2017 13:49:04
Eccentricity: 0.0016494
inclination: 82.5094°
perigee height: 498 km
apogee height: 521 km
right ascension of ascending node: 48.5739°
argument of perigee: 213.8814°
revolutions per day: 15.18737152
mean anomaly at epoch: 146.1368°
orbit number at epoch: 76542

The dashed part of the orbit path shows where the satellite is in the earth's shadow,  

DLR